| time (UTC) | temp C | wind direction | speed KPH | gust KPH | rain 1hr cm | rain 24hr cm | rain mn cm | humidity % | barometer mb |
| 20260904183710 | 32 | 121 | 1.6 | 4.8 | 0.00 | 0.00 | 0.00 | 60 | 1009.1 |
| 20260904182710 | 32 | 115 | 1.6 | 4.8 | 0.00 | 0.00 | 0.00 | 64 | 1009.2 |
| 20260904181710 | 32 | 290 | 1.6 | 8.0 | 0.00 | 0.00 | 0.00 | 62 | 1009.3 |
| 20260904175710 | 31 | 219 | 4.8 | 9.7 | 0.00 | 0.00 | 0.00 | 61 | 1009.4 |
| 20260904174710 | 32 | 242 | 4.8 | 16.1 | 0.00 | 0.00 | 0.00 | 63 | 1009.5 |
| 20260904173711 | 31 | 165 | 8.0 | 19.3 | 0.00 | 0.00 | 0.00 | 65 | 1009.6 |
| 20260904172711 | 31 | 169 | 8.0 | 14.5 | 0.00 | 0.00 | 0.00 | 65 | 1009.7 |
| 20260904170710 | 30 | 213 | 8.0 | 14.5 | 0.00 | 0.00 | 0.00 | 66 | 1009.8 |
| 20260904165711 | 30 | 179 | 1.6 | 12.9 | 0.00 | 0.00 | 0.00 | 64 | 1009.5 |
| 20260904164711 | 30 | 255 | 6.4 | 11.3 | 0.00 | 0.00 | 0.00 | 65 | 1009.4 |
| 20260904163710 | 30 | 205 | 3.2 | 4.8 | 0.00 | 0.00 | 0.00 | 67 | 1009.4 |
| 20260904162710 | 30 | 215 | 3.2 | 9.7 | 0.00 | 0.00 | 0.00 | 67 | 1009.3 |
| 20260904161711 | 29 | 223 | 4.8 | 9.7 | 0.00 | 0.00 | 0.00 | 66 | 1009.4 |
| 20260904160711 | 29 | 209 | 3.2 | 8.0 | 0.00 | 0.00 | 0.00 | 69 | 1009.2 |
| 20260904155711 | 28 | 202 | 4.8 | 9.7 | 0.00 | 0.00 | 0.00 | 68 | 1009.3 |
| 20260904154711 | 28 | 253 | 1.6 | 3.2 | 0.00 | 0.00 | 0.00 | 67 | 1009.1 |
| 20260904153710 | 28 | 333 | 3.2 | 4.8 | 0.00 | 0.00 | 0.00 | 71 | 1009.3 |
| 20260904152710 | 28 | 250 | 0.0 | 4.8 | 0.00 | 0.00 | 0.00 | 71 | 1009.2 |
| 20260904151711 | 28 | 312 | 1.6 | 4.8 | 0.00 | 0.00 | 0.00 | 69 | 1009.1 |
| 20260904150710 | 27 | 199 | 3.2 | 4.8 | 0.00 | 0.00 | 0.00 | 71 | 1009.2 |
| 20260904144711 | 27 | 222 | 0.0 | 3.2 | 0.00 | 0.00 | 0.00 | 70 | 1009.3 |
| 20260904143710 | 27 | 332 | 3.2 | 4.8 | 0.00 | 0.00 | 0.00 | 73 | 1009.1 |
| 20260904142710 | 26 | 311 | 1.6 | 4.8 | 0.00 | 0.00 | 0.00 | 74 | 1009.0 |
| 20260904141710 | 26 | 298 | 3.2 | 4.8 | 0.00 | 0.00 | 0.00 | 76 | 1009.1 |
| 20260904140710 | 25 | 318 | 0.0 | 3.2 | 0.00 | 0.00 | 0.00 | 77 | 1009.1 |
| 20260904135710 | 25 | 292 | 0.0 | 0.0 | 0.00 | 0.00 | 0.00 | 78 | 1009.2 |
| 20260904134710 | 25 | 292 | 0.0 | 0.0 | 0.00 | 0.00 | 0.00 | 79 | 1009.0 |
| 20260904133710 | 23 | 292 | 0.0 | 0.0 | 0.00 | 0.00 | 0.00 | 83 | 1009.1 |
| 20260904130712 | 21 | 293 | 0.0 | 0.0 | 0.00 | 0.00 | 0.00 | 88 | 1008.8 |
| 20260904125710 | 21 | 293 | 0.0 | 0.0 | 0.00 | 0.00 | 0.00 | 89 | 1008.6 |
| 20260904124711 | 21 | 293 | 0.0 | 0.0 | 0.00 | 0.00 | 0.00 | 87 | 1008.5 |
| 20260904123712 | 20 | 293 | 0.0 | 0.0 | 0.00 | 0.00 | 0.00 | 87 | 1008.3 |
| 20260904120710 | 21 | 293 | 0.0 | 1.6 | 0.00 | 0.00 | 0.00 | 85 | 1008.0 |
| 20260904115711 | 21 | 293 | 0.0 | 0.0 | 0.00 | 0.00 | 0.00 | 85 | 1007.8 |
| 20260904114711 | 21 | 293 | 0.0 | 0.0 | 0.00 | 0.00 | 0.00 | 85 | 1007.8 |
| 20260904112710 | 21 | 283 | 3.2 | 3.2 | 0.00 | 0.00 | 0.00 | 83 | 1007.6 |
| 20260904111710 | 22 | 255 | 1.6 | 3.2 | 0.00 | 0.00 | 0.00 | 82 | 1007.6 |
| 20260904110710 | 22 | 217 | 0.0 | 0.0 | 0.00 | 0.00 | 0.00 | 81 | 1007.4 |
| 20260904105711 | 22 | 217 | 1.6 | 4.8 | 0.00 | 0.00 | 0.00 | 82 | 1007.3 |
| 20260904104711 | 22 | 209 | 3.2 | 4.8 | 0.00 | 0.00 | 0.00 | 81 | 1007.4 |
| 20260904103711 | 23 | 215 | 3.2 | 4.8 | 0.00 | 0.00 | 0.00 | 81 | 1007.3 |
| 20260904102710 | 23 | 208 | 3.2 | 4.8 | 0.00 | 0.00 | 0.00 | 80 | 1007.3 |
| 20260904101710 | 23 | 207 | 4.8 | 9.7 | 0.00 | 0.00 | 0.00 | 80 | 1007.3 |
| 20260904100710 | 23 | 217 | 4.8 | 8.0 | 0.00 | 0.00 | 0.00 | 80 | 1007.2 |
| 20260904095710 | 23 | 214 | 6.4 | 8.0 | 0.00 | 0.00 | 0.00 | 79 | 1007.0 |
| 20260904094711 | 23 | 214 | 4.8 | 8.0 | 0.00 | 0.00 | 0.00 | 79 | 1006.9 |
| 20260904093711 | 23 | 215 | 3.2 | 4.8 | 0.00 | 0.00 | 0.00 | 78 | 1006.8 |
| 20260904092711 | 23 | 223 | 3.2 | 4.8 | 0.00 | 0.00 | 0.00 | 78 | 1006.8 |
| 20260904091710 | 23 | 216 | 4.8 | 8.0 | 0.00 | 0.00 | 0.00 | 78 | 1006.8 |
| 20260904085710 | 24 | 209 | 3.2 | 4.8 | 0.00 | 0.00 | 0.00 | 76 | 1006.4 |
| 20260904084710 | 24 | 232 | 0.0 | 0.0 | 0.00 | 0.00 | 0.00 | 74 | 1006.2 |
| 20260904083710 | 24 | 232 | 0.0 | 0.0 | 0.00 | 0.00 | 0.00 | 74 | 1006.3 |
| 20260904082710 | 25 | 198 | 0.0 | 4.8 | 0.00 | 0.00 | 0.00 | 73 | 1006.1 |
| 20260904081711 | 25 | 212 | 3.2 | 12.9 | 0.00 | 0.00 | 0.00 | 73 | 1006.0 |
| 20260904080710 | 25 | 193 | 4.8 | 11.3 | 0.00 | 0.00 | 0.00 | 73 | 1006.0 |
| 20260904075710 | 25 | 215 | 8.0 | 12.9 | 0.00 | 0.00 | 0.00 | 72 | 1006.0 |
| 20260904074712 | 25 | 192 | 6.4 | 12.9 | 0.00 | 0.00 | 0.00 | 72 | 1006.0 |
| 20260904073710 | 25 | 195 | 9.7 | 19.3 | 0.00 | 0.00 | 0.00 | 71 | 1006.0 |
| 20260904072710 | 25 | 180 | 12.9 | 24.1 | 0.00 | 0.00 | 0.00 | 71 | 1006.0 |
| 20260904071711 | 25 | 169 | 12.9 | 22.5 | 0.00 | 0.00 | 0.00 | 70 | 1005.9 |
| 20260904070710 | 25 | 195 | 16.1 | 24.1 | 0.00 | 0.00 | 0.00 | 70 | 1006.1 |
| 20260904065710 | 25 | 164 | 12.9 | 22.5 | 0.00 | 0.00 | 0.00 | 70 | 1005.9 |
| 20260904064710 | 26 | 196 | 12.9 | 19.3 | 0.00 | 0.00 | 0.00 | 70 | 1006.0 |
| 20260904063711 | 26 | 205 | 11.3 | 19.3 | 0.00 | 0.00 | 0.00 | 70 | 1006.0 |
| 20260904062710 | 26 | 207 | 9.7 | 19.3 | 0.00 | 0.00 | 0.00 | 69 | 1005.9 |
| 20260904061711 | 26 | 209 | 12.9 | 19.3 | 0.00 | 0.00 | 0.00 | 69 | 1005.9 |
| 20260904060711 | 26 | 189 | 11.3 | 19.3 | 0.00 | 0.00 | 0.00 | 70 | 1005.8 |
| 20260904055711 | 26 | 171 | 11.3 | 19.3 | 0.00 | 0.00 | 0.00 | 70 | 1005.8 |
| 20260904053711 | 26 | 169 | 9.7 | 19.3 | 0.00 | 0.00 | 0.00 | 70 | 1005.6 |
| 20260904052710 | 26 | 198 | 8.0 | 12.9 | 0.00 | 0.00 | 0.00 | 70 | 1005.6 |
| 20260904050711 | 27 | 177 | 6.4 | 14.5 | 0.00 | 0.00 | 0.00 | 69 | 1005.6 |
| 20260904045711 | 27 | 182 | 4.8 | 11.3 | 0.00 | 0.00 | 0.00 | 69 | 1005.6 |
| 20260904044711 | 27 | 177 | 4.8 | 9.7 | 0.00 | 0.00 | 0.00 | 68 | 1005.7 |
| 20260904043710 | 27 | 194 | 3.2 | 9.7 | 0.00 | 0.00 | 0.00 | 68 | 1005.9 |
| 20260904042711 | 27 | 186 | 3.2 | 11.3 | 0.00 | 0.00 | 0.00 | 68 | 1005.8 |
| 20260904041710 | 28 | 171 | 1.6 | 4.8 | 0.00 | 0.00 | 0.00 | 67 | 1005.9 |
| 20260904040710 | 28 | 191 | 4.8 | 22.5 | 0.00 | 0.00 | 0.00 | 67 | 1005.8 |
| 20260904035711 | 28 | 198 | 8.0 | 14.5 | 0.00 | 0.00 | 0.00 | 66 | 1005.7 |
| 20260904033710 | 28 | 150 | 4.8 | 16.1 | 0.00 | 0.00 | 0.00 | 65 | 1005.7 |
| 20260904032710 | 29 | 178 | 4.8 | 12.9 | 0.00 | 0.00 | 0.00 | 65 | 1005.8 |
| 20260904031711 | 29 | 149 | 3.2 | 9.7 | 0.00 | 0.00 | 0.00 | 65 | 1005.7 |
| 20260904030711 | 29 | 159 | 3.2 | 8.0 | 0.00 | 0.00 | 0.00 | 65 | 1005.8 |
| 20260904025710 | 30 | 164 | 3.2 | 12.9 | 0.00 | 0.00 | 0.00 | 65 | 1005.6 |
| 20260904024711 | 30 | 142 | 1.6 | 8.0 | 0.00 | 0.00 | 0.00 | 65 | 1005.6 |
| 20260904021710 | 30 | 142 | 4.8 | 9.7 | 0.00 | 0.00 | 0.00 | 64 | 1005.4 |
| 20260904020710 | 30 | 150 | 1.6 | 4.8 | 0.00 | 0.00 | 0.00 | 64 | 1005.3 |
| 20260904015711 | 31 | 63 | 1.6 | 3.2 | 0.00 | 0.00 | 0.00 | 63 | 1005.1 |
| 20260904014710 | 31 | 95 | 0.0 | 4.8 | 0.00 | 0.00 | 0.00 | 62 | 1004.9 |
| 20260904013710 | 31 | 123 | 4.8 | 11.3 | 0.00 | 0.00 | 0.00 | 62 | 1004.8 |
| 20260904012710 | 31 | 141 | 4.8 | 12.9 | 0.00 | 0.00 | 0.00 | 62 | 1004.7 |
| 20260904010710 | 32 | 145 | 3.2 | 11.3 | 0.00 | 0.00 | 0.00 | 60 | 1004.4 |
| 20260904005711 | 32 | 109 | 4.8 | 14.5 | 0.00 | 0.00 | 0.00 | 59 | 1004.3 |
| 20260904004711 | 33 | 155 | 6.4 | 14.5 | 0.00 | 0.00 | 0.00 | 57 | 1004.3 |
| 20260904003711 | 33 | 152 | 4.8 | 9.7 | 0.00 | 0.00 | 0.00 | 56 | 1004.4 |
| 20260904002711 | 33 | 173 | 4.8 | 11.3 | 0.00 | 0.00 | 0.00 | 55 | 1004.3 |
| 20260904001710 | 33 | 144 | 4.8 | 9.7 | 0.00 | 0.00 | 0.00 | 55 | 1004.2 |
| 20260904000711 | 33 | 157 | 4.8 | 11.3 | 0.00 | 0.00 | 0.00 | 55 | 1004.2 |
| 20260903235710 | 33 | 169 | 3.2 | 11.3 | 0.00 | 0.00 | 0.00 | 55 | 1004.2 |
| 20260903234711 | 34 | 178 | 6.4 | 14.5 | 0.00 | 0.00 | 0.00 | 54 | 1004.2 |
| 20260903233711 | 34 | 175 | 8.0 | 14.5 | 0.00 | 0.00 | 0.00 | 53 | 1004.2 |
| 20260903232710 | 35 | 196 | 9.7 | 19.3 | 0.00 | 0.00 | 0.00 | 53 | 1004.2 |
| 20260903231710 | 35 | 175 | 11.3 | 20.9 | 0.00 | 0.00 | 0.00 | 52 | 1004.1 |
| 20260903225711 | 35 | 188 | 11.3 | 19.3 | 0.00 | 0.00 | 0.00 | 51 | 1004.0 |
| 20260903224711 | 35 | 164 | 11.3 | 19.3 | 0.00 | 0.00 | 0.00 | 51 | 1003.8 |
| 20260903223711 | 35 | 182 | 9.7 | 19.3 | 0.00 | 0.00 | 0.00 | 52 | 1003.9 |
| 20260903222711 | 35 | 217 | 11.3 | 14.5 | 0.00 | 0.00 | 0.00 | 51 | 1003.9 |
| 20260903221710 | 35 | 198 | 8.0 | 16.1 | 0.00 | 0.00 | 0.00 | 53 | 1004.1 |
| 20260903220710 | 35 | 192 | 11.3 | 24.1 | 0.00 | 0.00 | 0.00 | 51 | 1004.1 |
| 20260903214710 | 35 | 214 | 14.5 | 19.3 | 0.00 | 0.00 | 0.00 | 51 | 1004.2 |
| 20260903213710 | 35 | 178 | 12.9 | 24.1 | 0.00 | 0.00 | 0.00 | 50 | 1004.3 |
| 20260903211711 | 35 | 199 | 11.3 | 22.5 | 0.00 | 0.00 | 0.00 | 50 | 1004.4 |
| 20260903210711 | 35 | 178 | 12.9 | 19.3 | 0.00 | 0.00 | 0.00 | 50 | 1004.4 |
| 20260903205711 | 35 | 207 | 8.0 | 32.2 | 0.00 | 0.00 | 0.00 | 50 | 1004.6 |
| 20260903204712 | 35 | 167 | 11.3 | 22.5 | 0.00 | 0.00 | 0.00 | 51 | 1004.6 |
| 20260903202711 | 35 | 142 | 14.5 | 22.5 | 0.00 | 0.00 | 0.00 | 51 | 1004.8 |
| 20260903201711 | 35 | 192 | 9.7 | 19.3 | 0.00 | 0.00 | 0.00 | 52 | 1004.7 |
| 20260903195711 | 34 | 205 | 4.8 | 24.1 | 0.00 | 0.00 | 0.00 | 55 | 1004.9 |
| 20260903194711 | 33 | 225 | 14.5 | 22.5 | 0.00 | 0.00 | 0.00 | 53 | 1004.9 |
| 20260903193710 | 33 | 200 | 11.3 | 24.1 | 0.00 | 0.00 | 0.00 | 52 | 1005.0 |
| 20260903192710 | 33 | 175 | 14.5 | 25.7 | 0.00 | 0.00 | 0.00 | 52 | 1005.0 |
| 20260903191710 | 33 | 184 | 14.5 | 24.1 | 0.00 | 0.00 | 0.00 | 53 | 1005.1 |
| 20260903190710 | 33 | 205 | 11.3 | 20.9 | 0.00 | 0.00 | 0.00 | 54 | 1005.0 |
| 20260903184710 | 32 | 219 | 16.1 | 27.4 | 0.00 | 0.00 | 0.00 | 55 | 1005.3 |